[[[{"header":{"parameterUnit":"kt","parameterCategory":2,"dx":1,"dy":1,"la1":30.253999710083008,"la2":30.299108505249023,"lo1":-89.0895004272461,"lo2":-89.04439544677734,"nx":28,"ny":28,"refTime":"2022-09-27T15:00:00:Z","depth":0,"parameterNumber":1,"parameterNumberName":"U-component_of_WINDS"},"data":[-3.4107,-3.4216,-3.421,-3.4331,-3.4345,-3.4427,-3.4455,-3.4489,-3.4515,-3.4613,-3.4668,-3.4672,-3.4697,-3.4761,-3.4821,-3.4822,-3.485,-3.4892,-3.4887,-3.4699,-3.4673,-3.4648,-3.4623,-3.4897,-3.4897,-3.5084,-3.5085,-3.5087,-3.397,-3.3986,-3.4047,-3.4103,-3.4156,-3.4111,-3.4151,-3.42,-3.4274,-3.4307,-3.436,-3.4446,-3.4512,-3.4522,-3.4586,-3.4637,-3.4621,-3.4655,-3.4654,-3.4659,-3.4457,-3.4431,-3.4668,-3.4668,-3.4668,-3.4667,-3.4667,-3.4667,-3.372,-3.3785,-3.3815,-3.3882,-3.3907,-3.3945,-3.4006,-3.401,-3.4071,-3.4136,-3.4116,-3.4201,-3.4233,-3.4307,-3.433,-3.4396,-3.4358,-3.4394,-3.4404,-3.4415,-3.4428,-3.4165,-3.4406,-3.4405,-3.4405,-3.4404,-3.4404,0,-3.3535,-3.3526,-3.3584,-3.3641,-3.369,-3.3733,-3.3772,-3.381,-3.3787,-3.3838,-3.3912,-3.3954,-3.4036,-3.4106,-3.4164,-3.4181,-3.4143,-3.4136,-3.4162,-3.4176,-3.4181,-3.4183,-3.3858,-3.4131,-3.4128,-3.4127,-3.4125,-3.4124,-3.3286,-3.3361,-3.3389,-3.3431,-3.3451,-3.3519,-3.3559,-3.3533,-3.3576,-3.3621,-3.368,-3.3748,-3.3802,-3.3922,-3.3928,-3.399,-3.3973,-3.4078,-3.3982,-3.3991,-3.3979,-3.3977,-3.3986,-3.4099,-3.4102,-3.4105,-3.4107,0,-3.3147,-3.3135,-3.325,-3.327,-3.3278,-3.3359,-3.3376,-3.344,-3.3437,-3.3525,-3.3544,-3.3541,-3.3614,-3.3603,-3.3684,-3.3676,-3.3812,-3.3791,-3.3801,-3.3798,-3.3894,-3.3887,-3.4201,-3.4242,-3.3953,-3.3955,-3.3958,0,-3.2932,-3.3032,-3.301,-3.3077,-3.3187,-3.3159,-3.3269,-3.3278,-3.3304,-3.3373,-3.3325,-3.3391,-3.3366,-3.343,-3.3419,-3.3527,-3.3541,-3.3543,-3.354,-3.355,-3.3551,-3.3577,-3.3566,-3.3524,-3.3523,-3.3521,-3.352,0,-3.2718,-3.2822,-3.2931,-3.2953,-3.2986,-3.3038,-3.3053,-3.3083,-3.3122,-3.3171,-3.3196,-3.3255,-3.3289,-3.3335,-3.3321,-3.3256,-3.3451,-3.336,-3.3454,-3.3455,-3.3502,-3.35,-3.3776,-3.3518,-3.3517,-3.3517,-3.3516,0,-3.2545,-3.2593,-3.2751,-3.2777,-3.2806,-3.2877,-3.2934,-3.2991,-3.3026,-3.3023,-3.3062,-3.303,-3.3121,-3.3032,-3.3158,-3.3079,-3.3115,-3.3124,-3.313,-3.3142,-3.3044,-3.3207,-3.3467,-3.3496,-3.3147,-3.3144,-3.3142,0,-3.2306,-3.2462,-3.2439,-3.259,-3.2661,-3.2603,-3.2681,-3.2713,-3.2716,-3.2777,-3.2779,-3.285,-3.278,-3.2801,-3.2864,-3.2872,-3.2974,-3.2856,-3.295,-3.2954,-3.2947,-3.3184,-3.3229,-3.341,-3.3102,-3.3106,-3.3109,0,-3.212,-3.2157,-3.2186,-3.2211,-3.2248,-3.2306,-3.2396,-3.2459,-3.2501,-3.2541,-3.2618,-3.2714,-3.2667,-3.2702,-3.2682,-3.2749,-3.2904,-3.269,-3.2691,-3.2732,-3.308,-3.3121,-3.3152,-3.2876,-3.2881,-3.2884,-3.3077,0,-3.1867,-3.1942,-3.2017,-3.2073,-3.2116,-3.2209,-3.2197,-3.2243,-3.222,-3.2221,-3.2332,-3.2355,-3.2421,-3.2451,-3.2429,-3.2585,-3.2558,-3.2507,-3.2423,-3.2578,-3.2642,-3.2667,-3.2329,-3.2327,-3.2324,-3.2323,0,0,-3.1643,-3.1751,-3.1724,-3.181,-3.1845,-3.1784,-3.1885,-3.1912,-3.1969,-3.1996,-3.1947,-3.2089,-3.2111,-3.2247,-3.2294,-3.2319,-3.2348,-3.2294,-3.2503,-3.2523,-3.2542,-3.261,-3.2637,-3.2319,-3.2318,-3.2317,-3.2317,0,-3.1549,-3.1569,-3.1668,-3.1695,-3.1733,-3.1728,-3.1752,-3.178,-3.1786,-3.1893,-3.1844,-3.1908,-3.2022,-3.2053,-3.2083,-3.2276,-3.2237,-3.2296,-3.2405,-3.2482,-3.2505,-3.2525,-3.2597,-3.2623,-3.2311,-3.2312,-3.2312,0,-3.1367,-3.1386,-3.1432,-3.1507,-3.1532,-3.1606,-3.1513,-3.1595,-3.165,-3.1582,-3.169,-3.1702,-3.1742,-3.1871,-3.1928,-3.1887,-3.2138,-3.2056,-3.2069,-3.2076,-3.2151,-3.2178,-3.2203,-3.1879,-3.1878,-3.1876,0,0,-3.1287,-3.1357,-3.1371,-3.1486,-3.1505,-3.15,-3.1538,-3.1519,-3.1555,-3.1569,-3.1585,-3.1622,-3.1688,-3.1732,-3.1793,-3.1936,-3.1944,-3.2003,-3.2023,-3.204,-3.2057,-3.2135,-3.2163,-3.1871,-3.1871,-3.187,0,0,-3.125,-3.1271,-3.124,-3.1372,-3.1407,-3.143,-3.1501,-3.1465,-3.1519,-3.1507,-3.148,-3.1489,-3.1609,-3.1624,-3.1551,-3.1764,-3.168,-3.1697,-3.1751,-3.1776,-3.1796,-3.1792,-3.1462,0,0,0,0,0,-3.1148,-3.1267,-3.124,-3.126,-3.1355,-3.1444,-3.1456,-3.1436,-3.1378,-3.1435,-3.1442,-3.1397,-3.1579,-3.1514,-3.1535,-3.1618,-3.18,-3.1812,-3.1824,-3.1927,-3.1953,-3.1976,0,0,0,0,0,0,-3.1156,-3.1181,-3.1237,-3.1264,-3.1286,-3.144,-3.1336,-3.1334,-3.1371,-3.1361,-3.1397,-3.1398,-3.1383,-3.1502,-3.1521,-3.16,-3.1456,-3.1805,-3.1815,-3.1825,-3.1936,-3.1958,-3.1977,0,0,0,0,0,-3.1162,-3.1182,-3.134,-3.1263,-3.1281,-3.1283,-3.1332,-3.1329,-3.1357,-3.1369,-3.1368,-3.1339,-3.1386,-3.1401,-3.1513,-3.1592,-3.1442,-3.145,-3.1812,-3.182,-3.1828,-3.1947,0,0,0,0,0,0,-3.1166,-3.1181,-3.1343,-3.1348,-3.1216,-3.1274,-3.1282,-3.1325,-3.1363,-3.1363,-3.1309,-3.1301,-3.1389,-3.14,-3.1412,-3.159,-3.1431,-3.1439,-3.1443,-3.1818,-3.1825,-3.1831,0,0,0,0,0,0,-3.117,-3.1185,-3.1346,-3.1288,-3.1286,-3.1266,-3.1273,-3.1366,-3.1364,-3.1301,-3.1295,-3.1305,-3.1372,-3.1401,-3.141,-3.1555,-3.1423,-3.143,-3.1435,-3.1438,-3.1824,-3.1829,0,0,0,0,0,0,-3.1176,-3.1189,-3.1286,-3.1285,-3.1283,-3.1337,-3.1347,-3.1447,-3.1313,-3.13,-3.13,-3.1295,-3.1374,-3.1382,-3.1408,-3.155,-3.1554,-3.1423,-3.1428,-3.1431,-3.1433,0,0,0,0,0,0,0,-3.1181,-3.1096,-3.1314,-3.1283,-3.1281,-3.1393,-3.1395,-3.1396,-3.1312,-3.1307,-3.1302,-3.1297,-3.1382,-3.139,-3.1398,-3.1546,0,0,-3.1422,-3.1426,0,0,0,0,0,0,0,0,-3.109,-3.1095,-3.1314,-3.1315,-3.1316,-3.1394,-3.1395,-3.1396,-3.1311,-3.1307,-3.1303,-3.1299,-3.1384,-3.139,-3.1397,0,0,0,0,0,0,0,0,0,0,0,0,0,0,0,-3.1314,-3.1315,0,-3.1394,-3.1395,-3.1396,-3.131,-3.1307,-3.1304,-3.1301,-3.1386,-3.1391,-3.1396,0,0,0,0,0,0,0,0,0,0,0,0,0,0,0,0,0,0,0,0,0,0,0,0,0,0,0,0,0,0,0,0,0,0,0,0,0,0,0,0,0,0,0,0,0,0,0,0,0,0,0,0,0,0,0,0,0,0,0,0,0,0,0,0,0,0,0,0,0]}],[{"header":{"parameterUnit":"kt","parameterCategory":2,"dx":1,"dy":1,"la1":30.253999710083008,"la2":30.299108505249023,"lo1":-89.0895004272461,"lo2":-89.04439544677734,"nx":28,"ny":28,"refTime":"2022-09-27T15:00:00:Z","depth":0,"parameterNumber":2,"parameterNumberName":"V-component_of_WINDS"},"data":[-11.8571,-11.8719,-11.8706,-11.8867,-11.8881,-11.8988,-11.9021,-11.9061,-11.9089,-11.9211,-11.9278,-11.9275,-11.9293,-11.9367,-11.9436,-11.9432,-11.9463,-11.9527,-11.9511,-11.9242,-11.9203,-11.9166,-11.9132,-11.9533,-11.9534,-11.9793,-11.9796,-11.9798,-11.8378,-11.8395,-11.8476,-11.8545,-11.8614,-11.8545,-11.8592,-11.8653,-11.8748,-11.8783,-11.8847,-11.8952,-11.9031,-11.9026,-11.9098,-11.9163,-11.9133,-11.9184,-11.9179,-11.9183,-11.8894,-11.8858,-11.9208,-11.9207,-11.9207,-11.9207,-11.9207,-11.9207,-11.8023,-11.8112,-11.8146,-11.8233,-11.8263,-11.8308,-11.8388,-11.8384,-11.846,-11.8536,-11.85,-11.8606,-11.8634,-11.8711,-11.8731,-11.8811,-11.8751,-11.88,-11.8813,-11.8827,-11.8846,-11.8477,-11.8822,-11.8821,-11.882,-11.8819,-11.8818,0,-11.7759,-11.7742,-11.7817,-11.789,-11.7952,-11.8005,-11.805,-11.8099,-11.805,-11.8114,-11.8205,-11.8254,-11.8349,-11.8431,-11.8493,-11.8502,-11.8433,-11.8423,-11.8457,-11.8478,-11.849,-11.8488,-11.8019,-11.8413,-11.8409,-11.8407,-11.8405,-11.8403,-11.7401,-11.7505,-11.7532,-11.7587,-11.7608,-11.7696,-11.7745,-11.7694,-11.7748,-11.7793,-11.7872,-11.7953,-11.8015,-11.8159,-11.8147,-11.8217,-11.8183,-11.8336,-11.8193,-11.821,-11.8188,-11.8183,-11.8194,-11.8366,-11.837,-11.8374,-11.8378,0,-11.7201,-11.7176,-11.7331,-11.7345,-11.7351,-11.7462,-11.7472,-11.7556,-11.754,-11.7653,-11.7675,-11.765,-11.7738,-11.7701,-11.7791,-11.7769,-11.7948,-11.7912,-11.7939,-11.793,-11.8065,-11.8054,-11.8504,-11.8561,-11.8142,-11.8146,-11.815,0,-11.6886,-11.7024,-11.6977,-11.7069,-11.7219,-11.7165,-11.7314,-11.7315,-11.7338,-11.7426,-11.7342,-11.7426,-11.7364,-11.7442,-11.7409,-11.7548,-11.7564,-11.7555,-11.7545,-11.7564,-11.7566,-11.7591,-11.7572,-11.7516,-11.7513,-11.7511,-11.7509,0,-11.6578,-11.6712,-11.686,-11.6886,-11.6913,-11.6982,-11.6996,-11.702,-11.7068,-11.7122,-11.7151,-11.7217,-11.7254,-11.7305,-11.7263,-11.7167,-11.743,-11.729,-11.7422,-11.7423,-11.7482,-11.748,-11.7887,-11.7507,-11.7506,-11.7505,-11.7504,0,-11.6319,-11.6379,-11.6597,-11.6617,-11.6654,-11.6749,-11.6813,-11.6886,-11.6918,-11.6904,-11.6945,-11.6884,-11.7001,-11.6865,-11.7025,-11.6913,-11.6953,-11.6955,-11.6963,-11.6972,-11.6822,-11.7059,-11.7449,-11.749,-11.698,-11.6976,-11.6972,0,-11.5974,-11.6186,-11.6141,-11.6347,-11.644,-11.6341,-11.6445,-11.6476,-11.6466,-11.6541,-11.6527,-11.6612,-11.6502,-11.6523,-11.6607,-11.6597,-11.6742,-11.6575,-11.6682,-11.6687,-11.668,-11.7039,-11.7107,-11.7368,-11.6915,-11.6921,-11.6925,0,-11.5703,-11.5735,-11.5775,-11.5802,-11.5835,-11.591,-11.603,-11.6103,-11.6156,-11.6197,-11.6296,-11.6412,-11.6335,-11.637,-11.6325,-11.6415,-11.6642,-11.6319,-11.6318,-11.638,-11.6883,-11.6948,-11.6992,-11.6592,-11.6599,-11.6604,-11.6881,0,-11.5322,-11.5423,-11.5529,-11.5591,-11.5643,-11.5769,-11.5731,-11.5791,-11.5744,-11.573,-11.5873,-11.5885,-11.5955,-11.5993,-11.5947,-11.6164,-11.6122,-11.6037,-11.5902,-11.6137,-11.6228,-11.6264,-11.5772,-11.5767,-11.5764,-11.5761,0,0,-11.4999,-11.5143,-11.5088,-11.5203,-11.5244,-11.5138,-11.5276,-11.5302,-11.5358,-11.5387,-11.5312,-11.5478,-11.549,-11.5667,-11.5737,-11.5765,-11.58,-11.5719,-11.6025,-11.6055,-11.6083,-11.618,-11.6219,-11.5754,-11.5753,-11.5752,-11.5751,0,-11.4852,-11.4872,-11.501,-11.5036,-11.5072,-11.505,-11.5083,-11.5099,-11.5096,-11.5235,-11.5143,-11.5222,-11.5355,-11.5381,-11.5412,-11.5697,-11.5621,-11.572,-11.5889,-11.5991,-11.6025,-11.6056,-11.6158,-11.6196,-11.5742,-11.5743,-11.5743,0,-11.4579,-11.4593,-11.4655,-11.4743,-11.4764,-11.486,-11.471,-11.4817,-11.4887,-11.476,-11.49,-11.4901,-11.493,-11.5102,-11.5177,-11.511,-11.5462,-11.5342,-11.5363,-11.5371,-11.5468,-11.5509,-11.5546,-11.506,-11.5058,-11.5056,0,0,-11.4457,-11.455,-11.4547,-11.4708,-11.4729,-11.4698,-11.4744,-11.4702,-11.4733,-11.4746,-11.4745,-11.4776,-11.4852,-11.4904,-11.4973,-11.5167,-11.5168,-11.526,-11.5292,-11.5319,-11.5341,-11.5444,-11.5485,-11.5047,-11.5047,-11.5047,0,0,-11.4398,-11.4401,-11.4349,-11.4532,-11.4567,-11.4571,-11.4671,-11.4606,-11.4665,-11.4645,-11.4576,-11.4581,-11.4741,-11.4744,-11.4638,-11.4924,-11.4791,-11.4815,-11.4916,-11.4956,-11.4988,-11.4984,-11.4484,0,0,0,0,0,-11.4228,-11.4401,-11.4354,-11.4379,-11.4487,-11.4598,-11.4611,-11.456,-11.4468,-11.4548,-11.4537,-11.4453,-11.4673,-11.4578,-11.4602,-11.4721,-11.4941,-11.496,-11.4977,-11.5153,-11.5195,-11.5231,0,0,0,0,0,0,-11.4237,-11.4268,-11.4349,-11.4362,-11.4386,-11.4591,-11.4424,-11.4415,-11.4458,-11.444,-11.4458,-11.4453,-11.4409,-11.4562,-11.4585,-11.4698,-11.4476,-11.4948,-11.4964,-11.4979,-11.5167,-11.5202,-11.5232,0,0,0,0,0,-11.4244,-11.4269,-11.4457,-11.4359,-11.438,-11.4354,-11.4417,-11.4408,-11.444,-11.4423,-11.4416,-11.4398,-11.4414,-11.4429,-11.4575,-11.4689,-11.446,-11.4468,-11.4958,-11.4971,-11.4982,-11.5184,0,0,0,0,0,0,-11.425,-11.426,-11.4459,-11.4464,-11.429,-11.4341,-11.4347,-11.4403,-11.4418,-11.4413,-11.4358,-11.4344,-11.442,-11.443,-11.4443,-11.4689,-11.4447,-11.4456,-11.4461,-11.4968,-11.4978,-11.4987,0,0,0,0,0,0,-11.4247,-11.4265,-11.4462,-11.4377,-11.4371,-11.433,-11.4335,-11.445,-11.442,-11.4353,-11.4341,-11.4352,-11.44,-11.4432,-11.4441,-11.4622,-11.4437,-11.4445,-11.4451,-11.4455,-11.4976,-11.4984,0,0,0,0,0,0,-11.4253,-11.4269,-11.4376,-11.4371,-11.4366,-11.4409,-11.4429,-11.4542,-11.4351,-11.4353,-11.4332,-11.4323,-11.4404,-11.4412,-11.4441,-11.4619,-11.4622,-11.4437,-11.4443,-11.4447,-11.445,0,0,0,0,0,0,0,-11.4259,-11.4168,-11.4435,-11.4367,-11.4361,-11.4503,-11.4504,-11.4505,-11.4349,-11.4342,-11.4334,-11.4327,-11.4389,-11.4398,-11.4407,-11.4616,0,0,-11.4436,-11.444,0,0,0,0,0,0,0,0,-11.416,-11.4166,-11.4435,-11.4436,-11.4437,-11.4503,-11.4504,-11.4505,-11.4348,-11.4342,-11.4336,-11.433,-11.4391,-11.4399,-11.4406,0,0,0,0,0,0,0,0,0,0,0,0,0,0,0,-11.4435,-11.4436,0,-11.4503,-11.4504,-11.4505,-11.4347,-11.4342,-11.4337,-11.4332,-11.4393,-11.4399,-11.4406,0,0,0,0,0,0,0,0,0,0,0,0,0,0,0,0,0,0,0,0,0,0,0,0,0,0,0,0,0,0,0,0,0,0,0,0,0,0,0,0,0,0,0,0,0,0,0,0,0,0,0,0,0,0,0,0,0,0,0,0,0,0,0,0,0,0,0,0,0]}]]]